Date,TemperatureHighF,TemperatureAvgF,TemperatureLowF,DewpointHighF,DewpointAvgF,DewpointLowF,HumidityHigh,HumidityAvg,HumidityLow,PressureMaxIn,PressureMinIn,WindSpeedMaxMPH,WindSpeedAvgMPH,GustSpeedMaxMPH,PrecipitationSumIn
2014-1-1,43,34,28,-100,-100,-100,0,0,100,0.00,40.00,0,-999,0,0.00
2014-1-2,31,18,8,-100,-100,-100,0,0,100,0.00,40.00,0,-999,0,0.00
2014-1-3,25,10,3,-100,-100,-100,0,0,100,0.00,40.00,0,-999,0,0.00
2014-1-4,36,30,20,-100,-100,-100,0,0,100,0.00,40.00,0,-999,0,0.00
2014-1-5,30,23,8,-100,-100,-100,0,0,100,0.00,40.00,0,-999,0,0.00
2014-1-6,1,-3,-6,-100,-100,-100,0,0,100,0.00,40.00,0,-999,0,0.00
2014-1-7,17,8,-6,-100,-100,-100,0,0,100,0.00,40.00,0,-999,0,0.00
2014-1-8,34,25,14,-100,-100,-100,0,0,100,0.00,40.00,0,-999,0,0.00
2014-1-9,27,25,24,-100,-100,-100,0,0,100,0.00,40.00,0,-999,0,0.00
2014-1-10,42,34,27,-100,-100,-100,0,0,100,0.00,40.00,0,-999,0,0.00
2014-1-11,44,38,33,-100,-100,-100,0,0,100,0.00,40.00,0,-999,0,0.00
2014-1-12,57,44,25,-100,-100,-100,0,0,100,0.00,40.00,0,-999,0,0.00
2014-1-13,61,48,36,-100,-100,-100,0,0,100,0.00,40.00,0,-999,0,0.00
2014-1-14,49,41,24,-100,-100,-100,0,0,100,0.00,40.00,0,-999,0,0.00
2014-1-15,32,24,20,-100,-100,-100,0,0,100,0.00,40.00,0,-999,0,0.00
2014-1-16,42,29,21,-100,-100,-100,0,0,100,0.00,40.00,0,-999,0,0.00
2014-1-17,29,16,10,-100,-100,-100,0,0,100,0.00,40.00,0,-999,0,0.00
2014-1-18,35,28,10,-100,-100,-100,0,0,100,0.00,40.00,0,-999,0,0.00
2014-1-19,44,31,20,-100,-100,-100,0,0,100,0.00,40.00,0,-999,0,0.00
2014-1-20,50,34,28,-100,-100,-100,0,0,100,0.00,40.00,0,-999,0,0.00
2014-1-21,31,18,5,-100,-100,-100,0,0,100,0.00,40.00,0,-999,0,0.00
2014-1-22,24,15,6,-100,-100,-100,0,0,100,0.00,40.00,0,-999,0,0.00
2014-1-23,11,6,-1,-100,-100,-100,0,0,100,0.00,40.00,0,-999,0,0.00
2014-1-24,27,18,-1,-100,-100,-100,0,0,100,0.00,40.00,0,-999,0,0.00
2014-1-25,45,32,23,-100,-100,-100,0,0,100,0.00,40.00,0,-999,0,0.00
2014-1-26,59,34,17,-100,-100,-100,0,0,100,0.00,40.00,0,-999,0,0.00
2014-1-27,24,12,5,-100,-100,-100,0,0,100,0.00,40.00,0,-999,0,0.00
2014-1-28,20,5,1,-100,-100,-100,0,0,100,0.00,40.00,0,-999,0,0.00
2014-1-29,27,11,1,-100,-100,-100,0,0,100,0.00,40.00,0,-999,0,0.00
2014-1-30,41,28,14,-100,-100,-100,0,0,100,0.00,40.00,0,-999,0,0.00
2014-1-31,46,36,27,-100,-100,-100,0,0,100,0.00,40.00,0,-999,0,0.00
2014-2-1,52,40,27,-100,-100,-100,0,0,100,0.00,40.00,0,-999,0,0.00
2014-2-2,27,22,18,-100,-100,-100,0,0,100,0.00,40.00,0,-999,0,0.00
2014-2-3,32,16,8,-100,-100,-100,0,0,100,0.00,40.00,0,-999,0,0.00
2014-2-4,25,21,17,-100,-100,-100,0,0,100,0.00,40.00,0,-999,0,0.00
2014-2-5,24,18,11,-100,-100,-100,0,0,100,0.00,40.00,0,-999,0,0.00
2014-2-6,16,6,-1,-100,-100,-100,0,0,100,0.00,40.00,0,-999,0,0.00
2014-2-7,25,7,-3,-100,-100,-100,0,0,100,0.00,40.00,0,-999,0,0.00
2014-2-8,28,20,12,-100,-100,-100,0,0,100,0.00,40.00,0,-999,0,0.00
2014-2-9,29,21,13,-100,-100,-100,0,0,100,0.00,40.00,0,-999,0,0.00
2014-2-10,13,8,1,-100,-100,-100,0,0,100,0.00,40.00,0,-999,0,0.00
2014-2-11,23,4,-3,-100,-100,-100,0,0,100,0.00,40.00,0,-999,0,0.00
2014-2-12,32,12,1,-100,-100,-100,0,0,100,0.00,40.00,0,-999,0,0.00
2014-2-13,46,30,6,-100,-100,-100,0,0,100,0.00,40.00,0,-999,0,0.00
2014-2-14,32,23,13,-100,-100,-100,0,0,100,0.00,40.00,0,-999,0,0.00
2014-2-15,26,20,8,-100,-100,-100,0,0,100,0.00,40.00,0,-999,0,0.00
2014-2-16,29,24,17,-100,-100,-100,0,0,100,0.00,40.00,0,-999,0,0.00
2014-2-17,38,27,18,-100,-100,-100,0,0,100,0.00,40.00,0,-999,0,0.00
2014-2-18,61,44,30,-100,-100,-100,0,0,100,0.00,40.00,0,-999,0,0.00
2014-2-19,54,46,39,-100,-100,-100,0,0,100,0.00,40.00,0,-999,0,0.00
2014-2-20,67,52,36,-100,-100,-100,0,0,100,0.00,40.00,0,-999,0,0.00
2014-2-21,58,38,31,-100,-100,-100,0,0,100,0.00,40.00,0,-999,0,0.00
2014-2-22,68,49,33,-100,-100,-100,0,0,100,0.00,40.00,0,-999,0,0.00
2014-2-23,42,32,24,-100,-100,-100,0,0,100,0.00,40.00,0,-999,0,0.00
2014-2-24,41,26,17,-100,-100,-100,0,0,100,0.00,40.00,0,-999,0,0.00
2014-2-25,35,24,19,-100,-100,-100,0,0,100,0.00,40.00,0,-999,0,0.00
2014-2-26,29,16,8,-100,-100,-100,0,0,100,0.00,40.00,0,-999,0,0.00
2014-2-27,31,22,14,-100,-100,-100,0,0,100,0.00,40.00,0,-999,0,0.00
2014-2-28,51,29,12,-100,-100,-100,0,0,100,0.00,40.00,0,-999,0,0.00
2014-3-1,48,40,27,-100,-100,-100,0,0,100,0.00,40.00,0,-999,0,0.00
2014-3-2,28,17,5,-100,-100,-100,0,0,100,0.00,40.00,0,-999,0,0.00
2014-3-3,25,10,4,-100,-100,-100,0,0,100,0.00,40.00,0,-999,0,0.00
2014-3-4,39,20,5,-100,-100,-100,0,0,100,0.00,40.00,0,-999,0,0.00
2014-3-5,43,30,13,-100,-100,-100,0,0,100,0.00,40.00,0,-999,0,0.00
2014-3-6,48,41,31,-100,-100,-100,0,0,100,0.00,40.00,0,-999,0,0.00
2014-3-7,57,36,18,-100,-100,-100,0,0,100,0.00,40.00,0,-999,0,0.00
2014-3-8,53,39,30,-100,-100,-100,0,0,100,0.00,40.00,0,-999,0,0.00
2014-3-9,52,36,24,-100,-100,-100,0,0,100,0.00,40.00,0,-999,0,0.00
2014-3-10,71,45,32,-100,-100,-100,0,0,100,0.00,40.00,0,-999,0,0.00
2014-3-11,79,58,46,-100,-100,-100,0,0,100,0.00,40.00,0,-999,0,0.00
2014-3-12,61,37,26,-100,-100,-100,0,0,100,0.00,40.00,0,-999,0,0.00
2014-3-13,55,32,18,-100,-100,-100,0,0,100,0.00,40.00,0,-999,0,0.00
2014-3-14,63,52,41,-100,-100,-100,0,0,100,0.00,40.00,0,-999,0,0.00
2014-3-15,74,52,28,-100,-100,-100,0,0,100,0.00,40.00,0,-999,0,0.00
2014-3-16,44,32,26,-100,-100,-100,0,0,100,0.00,40.00,0,-999,0,0.00
2014-3-17,48,28,22,-100,-100,-100,0,0,100,0.00,40.00,0,-999,0,0.00
2014-3-18,59,50,36,-100,-100,-100,0,0,100,0.00,40.00,0,-999,0,0.00
2014-3-19,57,47,31,-100,-100,-100,0,0,100,0.00,40.00,0,-999,0,0.00
2014-3-20,67,42,22,-100,-100,-100,0,0,100,0.00,40.00,0,-999,0,0.00
2014-3-21,74,55,42,-100,-100,-100,0,0,100,0.00,40.00,0,-999,0,0.00
2014-3-22,55,43,36,-100,-100,-100,0,0,100,0.00,40.00,0,-999,0,0.00
2014-3-23,43,33,26,-100,-100,-100,0,0,100,0.00,40.00,0,-999,0,0.00
2014-3-24,44,32,17,-100,-100,-100,0,0,100,0.00,40.00,0,-999,0,0.00
2014-3-25,42,30,22,-100,-100,-100,0,0,100,0.00,40.00,0,-999,0,0.00
2014-3-26,52,31,12,-100,-100,-100,0,0,100,0.00,40.00,0,-999,0,0.00
2014-3-27,58,48,35,-100,-100,-100,0,0,100,0.00,40.00,0,-999,0,0.00
2014-3-28,61,50,38,-100,-100,-100,0,0,100,0.00,40.00,0,-999,0,0.00
2014-3-29,43,38,32,-100,-100,-100,0,0,100,0.00,40.00,0,-999,0,0.00
2014-3-30,63,37,22,-100,-100,-100,0,0,100,0.00,40.00,0,-999,0,0.00
2014-3-31,67,61,46,-100,-100,-100,0,0,100,0.00,40.00,0,-999,0,0.00
2014-4-1,65,54,46,-100,-100,-100,0,0,100,0.00,40.00,0,-999,0,0.00
2014-4-2,62,50,44,-100,-100,-100,0,0,100,0.00,40.00,0,-999,0,0.00
2014-4-3,61,58,55,-100,-100,-100,0,0,100,0.00,40.00,0,-999,0,0.00
2014-4-4,54,48,39,-100,-100,-100,0,0,100,0.00,40.00,0,-999,0,0.00
2014-4-5,56,44,35,-100,-100,-100,0,0,100,0.00,40.00,0,-999,0,0.00
2014-4-6,56,40,30,-100,-100,-100,0,0,100,0.00,40.00,0,-999,0,0.00
2014-4-7,46,44,39,-100,-100,-100,0,0,100,0.00,40.00,0,-999,0,0.00
2014-4-8,65,52,39,-100,-100,-100,0,0,100,0.00,40.00,0,-999,0,0.00
2014-4-9,66,48,37,-100,-100,-100,0,0,100,0.00,40.00,0,-999,0,0.00
2014-4-10,81,57,46,-100,-100,-100,0,0,100,0.00,40.00,0,-999,0,0.00
2014-4-11,74,60,48,-100,-100,-100,0,0,100,0.00,40.00,0,-999,0,0.00
2014-4-12,77,66,49,-100,-100,-100,0,0,100,0.00,40.00,0,-999,0,0.00
2014-4-13,72,66,59,-100,-100,-100,0,0,100,0.00,40.00,0,-999,0,0.00
2014-4-14,59,49,32,-100,-100,-100,0,0,100,0.00,40.00,0,-999,0,0.00
2014-4-15,45,35,27,-100,-100,-100,0,0,100,0.00,40.00,0,-999,0,0.00
2014-4-16,60,50,29,-100,-100,-100,0,0,100,0.00,40.00,0,-999,0,0.00
2014-4-17,71,50,31,-100,-100,-100,0,0,100,0.00,40.00,0,-999,0,0.00
2014-4-18,74,52,41,-100,-100,-100,0,0,100,0.00,40.00,0,-999,0,0.00
2014-4-19,70,53,43,-100,-100,-100,0,0,100,0.00,40.00,0,-999,0,0.00
2014-4-20,79,63,49,-100,-100,-100,0,0,100,0.00,40.00,0,-999,0,0.00
2014-4-21,77,64,51,-100,-100,-100,0,0,100,0.00,40.00,0,-999,0,0.00
2014-4-22,69,60,52,-100,-100,-100,0,0,100,0.00,40.00,0,-999,0,0.00
2014-4-23,69,53,41,-100,-100,-100,0,0,100,0.00,40.00,0,-999,0,0.00
2014-4-24,80,66,47,-100,-100,-100,0,0,100,0.00,40.00,0,-999,0,0.00
2014-4-25,74,59,51,-100,-100,-100,0,0,100,0.00,40.00,0,-999,0,0.00
2014-4-26,78,62,48,-100,-100,-100,0,0,100,0.00,40.00,0,-999,0,0.00
2014-4-27,74,67,54,-100,-100,-100,0,0,100,0.00,40.00,0,-999,0,0.00
2014-4-28,60,58,57,-100,-100,-100,0,0,100,0.00,40.00,0,-999,0,0.00
2014-4-29,66,58,53,-100,-100,-100,0,0,100,0.00,40.00,0,-999,0,0.00
2014-4-30,53,48,41,-100,-100,-100,0,0,100,0.00,40.00,0,-999,0,0.00
2014-5-1,57,46,39,-100,-100,-100,0,0,100,0.00,40.00,0,-999,0,0.00
2014-5-2,62,47,39,-100,-100,-100,0,0,100,0.00,40.00,0,-999,0,0.00
2014-5-3,76,60,43,-100,-100,-100,0,0,100,0.00,40.00,0,-999,0,0.00
2014-5-4,86,62,47,-100,-100,-100,0,0,100,0.00,40.00,0,-999,0,0.00
2014-5-5,89,65,52,-100,-100,-100,0,0,100,0.00,40.00,0,-999,0,0.00
2014-5-6,84,70,55,-100,-100,-100,0,0,100,0.00,40.00,0,-999,0,0.00
2014-5-13,58,57,56,-100,-100,-100,0,0,100,0.00,40.00,0,-999,0,0.00
2014-5-14,51,49,44,-100,-100,-100,0,0,100,0.00,40.00,0,-999,0,0.00
2014-5-15,62,46,44,-100,-100,-100,0,0,100,0.00,40.00,0,-999,0,0.00
2014-5-16,58,48,40,-100,-100,-100,0,0,100,0.00,40.00,0,-999,0,0.00
2014-5-17,66,50,36,-100,-100,-100,0,0,100,0.00,40.00,0,-999,0,0.00
2014-5-18,65,51,39,-100,-100,-100,0,0,100,0.00,40.00,0,-999,0,0.00
2014-5-19,75,58,44,-100,-100,-100,0,0,100,0.00,40.00,0,-999,0,0.00
2014-5-20,86,72,57,-100,-100,-100,0,0,100,0.00,40.00,0,-999,0,0.00
2014-5-21,86,74,65,-100,-100,-100,0,0,100,0.00,40.00,0,-999,0,0.00
2014-5-22,81,70,65,-100,-100,-100,0,0,100,0.00,40.00,0,-999,0,0.00
2014-5-23,86,69,58,-100,-100,-100,0,0,100,0.00,40.00,0,-999,0,0.00
2014-5-24,79,63,55,-100,-100,-100,0,0,100,0.00,40.00,0,-999,0,0.00
2014-5-25,85,72,62,-100,-100,-100,0,0,100,0.00,40.00,0,-999,0,0.00
2014-5-26,87,72,61,-100,-100,-100,0,0,100,0.00,40.00,0,-999,0,0.00
2014-5-27,84,70,63,-100,-100,-100,0,0,100,0.00,40.00,0,-999,0,0.00
2014-5-28,82,70,62,-100,-100,-100,0,0,100,0.00,40.00,0,-999,0,0.00
2014-5-29,77,69,63,-100,-100,-100,0,0,100,0.00,40.00,0,-999,0,0.00
2014-5-30,84,70,65,-100,-100,-100,0,0,100,0.00,40.00,0,-999,0,0.00
2014-5-31,84,72,63,-100,-100,-100,0,0,100,0.00,40.00,0,-999,0,0.00
2014-6-1,85,70,63,-100,-100,-100,0,0,100,0.00,40.00,0,-999,0,0.00
2014-6-2,74,71,68,-100,-100,-100,0,0,100,0.00,40.00,0,-999,0,0.00
2014-6-3,85,73,68,-100,-100,-100,0,0,100,0.00,40.00,0,-999,0,0.00
2014-6-4,83,73,67,-100,-100,-100,0,0,100,0.00,40.00,0,-999,0,0.00
2014-6-5,73,66,61,-100,-100,-100,0,0,100,0.00,40.00,0,-999,0,0.00
2014-6-6,81,70,60,-100,-100,-100,0,0,100,0.00,40.00,0,-999,0,0.00
2014-6-7,79,69,62,-100,-100,-100,0,0,100,0.00,40.00,0,-999,0,0.00
2014-6-8,76,68,63,-100,-100,-100,0,0,100,0.00,40.00,0,-999,0,0.00
2014-6-9,74,68,63,-100,-100,-100,0,0,100,0.00,40.00,0,-999,0,0.00
2014-6-10,70,66,63,-100,-100,-100,0,0,100,0.00,40.00,0,-999,0,0.00
2014-6-11,75,65,62,-100,-100,-100,0,0,100,0.00,40.00,0,-999,0,0.00
2014-6-12,83,66,60,-100,-100,-100,0,0,100,0.00,40.00,0,-999,0,0.00
2014-6-13,77,66,58,-100,-100,-100,0,0,100,0.00,40.00,0,-999,0,0.00
2014-6-14,83,67,51,-100,-100,-100,0,0,100,0.00,40.00,0,-999,0,0.00
2014-6-15,84,70,56,-100,-100,-100,0,0,100,0.00,40.00,0,-999,0,0.00
2014-6-16,90,79,67,-100,-100,-100,0,0,100,0.00,40.00,0,-999,0,0.00
2014-6-17,88,76,69,-100,-100,-100,0,0,100,0.00,40.00,0,-999,0,0.00
2014-6-18,91,78,71,-100,-100,-100,0,0,100,0.00,40.00,0,-999,0,0.00
2014-6-19,91,77,68,-100,-100,-100,0,0,100,0.00,40.00,0,-999,0,0.00
2014-6-20,89,76,68,-100,-100,-100,0,0,100,0.00,40.00,0,-999,0,0.00
2014-6-21,90,76,67,-100,-100,-100,0,0,100,0.00,40.00,0,-999,0,0.00
2014-6-22,87,75,67,-100,-100,-100,0,0,100,0.00,40.00,0,-999,0,0.00
2014-6-23,89,74,67,-100,-100,-100,0,0,100,0.00,40.00,0,-999,0,0.00
2014-6-24,81,73,67,-100,-100,-100,0,0,100,0.00,40.00,0,-999,0,0.00
2014-6-25,86,76,65,-100,-100,-100,0,0,100,0.00,40.00,0,-999,0,0.00
2014-6-26,79,70,67,-100,-100,-100,0,0,100,0.00,40.00,0,-999,0,0.00
2014-6-27,85,73,66,-100,-100,-100,0,0,100,0.00,40.00,0,-999,0,0.00
2014-6-28,85,77,66,-100,-100,-100,0,0,100,0.00,40.00,0,-999,0,0.00
2014-6-29,79,73,68,-100,-100,-100,0,0,100,0.00,40.00,0,-999,0,0.00
2014-6-30,87,78,68,-100,-100,-100,0,0,100,0.00,40.00,0,-999,0,0.00
2014-7-1,77,72,68,-100,-100,-100,0,0,100,0.00,40.00,0,-999,0,0.00
2014-7-2,80,72,65,-100,-100,-100,0,0,100,0.00,40.00,0,-999,0,0.00
2014-7-3,72,66,58,-100,-100,-100,0,0,100,0.00,40.00,0,-999,0,0.00
2014-7-4,79,67,58,-100,-100,-100,0,0,100,0.00,40.00,0,-999,0,0.00
2014-7-5,84,68,56,-100,-100,-100,0,0,100,0.00,40.00,0,-999,0,0.00
2014-7-6,87,73,62,-100,-100,-100,0,0,100,0.00,40.00,0,-999,0,0.00
2014-7-7,84,71,67,-100,-100,-100,0,0,100,0.00,40.00,0,-999,0,0.00
2014-7-8,85,76,67,-100,-100,-100,0,0,100,0.00,40.00,0,-999,0,0.00
2014-7-9,86,72,65,-100,-100,-100,0,0,100,0.00,40.00,0,-999,0,0.00
2014-7-10,86,72,61,-100,0,200,0,0,100,0.00,40.00,0,0,0,0.00
2014-7-11,90,73,59,-100,0,200,0,0,100,0.00,40.00,0,0,0,0.00
2014-7-12,91,75,68,-100,0,200,0,0,100,0.00,40.00,0,0,0,0.00
2014-7-13,91,76,68,-100,0,200,0,0,100,0.00,40.00,0,0,0,0.00
2014-7-14,85,72,67,-100,0,200,0,0,100,0.00,40.00,0,0,0,0.00
2014-7-15,75,66,60,-100,0,200,0,0,100,0.00,40.00,0,0,0,0.00
2014-7-16,79,63,55,-100,0,200,0,0,100,0.00,40.00,0,0,0,0.00
2014-7-17,84,67,56,-100,0,200,0,0,100,0.00,40.00,0,0,0,0.00
2014-7-18,84,70,58,-100,0,200,0,0,100,0.00,40.00,0,0,0,0.00
2014-7-19,81,65,58,-100,0,200,0,0,100,0.00,40.00,0,0,0,0.00
2014-7-20,77,65,58,-100,0,200,0,0,100,0.00,40.00,0,0,0,0.00
2014-7-21,89,70,60,-100,0,200,0,0,100,0.00,40.00,0,0,0,0.00
2014-7-22,89,74,63,-100,0,200,0,0,100,0.00,40.00,0,0,0,0.00
2014-7-23,76,71,67,-100,0,200,0,0,100,0.00,40.00,0,0,0,0.00
2014-7-24,79,66,55,-100,0,200,0,0,100,0.00,40.00,0,0,0,0.00
2014-7-25,78,66,57,-100,0,200,0,0,100,0.00,40.00,0,0,0,0.00
2014-7-26,91,79,61,-100,0,200,0,0,100,0.00,40.00,0,0,0,0.00
2014-7-27,87,77,74,-100,0,200,0,0,100,0.00,40.00,0,0,0,0.00
2014-7-28,74,69,61,-100,0,200,0,0,100,0.00,40.00,0,0,0,0.00
2014-7-29,77,66,55,-100,0,200,0,0,100,0.00,40.00,0,0,0,0.00
2014-7-30,82,69,58,-100,0,200,0,0,100,0.00,40.00,0,0,0,0.00
2014-7-31,80,70,59,-100,0,200,0,0,100,0.00,40.00,0,0,0,0.00
2014-8-1,87,72,61,-100,0,200,0,0,100,0.00,40.00,0,0,0,0.00
2014-8-2,84,67,61,-100,0,200,0,0,100,0.00,40.00,0,0,0,0.00
2014-8-3,87,71,61,-100,0,200,0,0,100,0.00,40.00,0,0,0,0.00
2014-8-4,82,68,60,-100,0,200,0,0,100,0.00,40.00,0,0,0,0.00
2014-8-5,86,71,63,-100,0,200,0,0,100,0.00,40.00,0,0,0,0.00
2014-8-6,87,76,67,-100,0,200,0,0,100,0.00,40.00,0,0,0,0.00
2014-8-7,74,69,67,-100,0,200,0,0,100,0.00,40.00,0,0,0,0.00
2014-8-8,78,72,67,-100,0,200,0,0,100,0.00,40.00,0,0,0,0.00
2014-8-9,77,71,68,-100,0,200,0,0,100,0.00,40.00,0,0,0,0.00
2014-8-10,84,73,67,-100,0,200,0,0,100,0.00,40.00,0,0,0,0.00
2014-8-11,81,75,68,-100,0,200,0,0,100,0.00,40.00,0,0,0,0.00
2014-8-12,82,70,61,-100,0,200,0,0,100,0.00,40.00,0,0,0,0.00
2014-8-13,84,70,58,-100,0,200,0,0,100,0.00,40.00,0,0,0,0.00
2014-8-14,86,69,58,-100,0,200,0,0,100,0.00,40.00,0,0,0,0.00
2014-8-15,84,69,60,-100,0,200,0,0,100,0.00,40.00,0,0,0,0.00
2014-8-16,72,69,66,-100,0,200,0,0,100,0.00,40.00,0,0,0,0.00
2014-8-17,75,70,67,-100,0,200,0,0,100,0.00,40.00,0,0,0,0.00
2014-8-18,86,71,68,-100,0,200,0,0,100,0.00,40.00,0,0,0,0.00
2014-8-19,82,73,65,-100,0,200,0,0,100,0.00,40.00,0,0,0,0.00
2014-8-20,81,73,65,-100,0,200,0,0,100,0.00,40.00,0,0,0,0.00
2014-8-21,91,78,70,-100,0,200,0,0,100,0.00,40.00,0,0,0,0.00
2014-8-22,91,77,71,-100,0,200,0,0,100,0.00,40.00,0,0,0,0.00
2014-8-23,93,81,74,-100,0,200,0,0,100,0.00,40.00,0,0,0,0.00
2014-8-24,94,77,69,-100,0,200,0,0,100,0.00,40.00,0,0,0,0.00
2014-8-25,88,76,70,-100,0,200,0,0,100,0.00,40.00,0,0,0,0.00
2014-8-26,93,79,70,-100,0,200,0,0,100,0.00,40.00,0,0,0,0.00
2014-8-27,94,77,70,-100,0,200,0,0,100,0.00,40.00,0,0,0,0.00
2014-8-28,85,71,69,-100,0,200,0,0,100,0.00,40.00,0,0,0,0.00
2014-8-29,91,74,67,-100,0,200,0,0,100,0.00,40.00,0,0,0,0.00
2014-8-30,74,71,68,-100,0,200,0,0,100,0.00,40.00,0,0,0,0.00
2014-8-31,84,75,68,-100,0,200,0,0,100,0.00,40.00,0,0,0,0.00
2014-9-1,83,74,70,-100,0,200,0,0,100,0.00,40.00,0,0,0,0.00
2014-9-2,79,70,67,-100,0,200,0,0,100,0.00,40.00,0,0,0,0.00
2014-9-3,89,68,62,-100,0,200,0,0,100,0.00,40.00,0,0,0,0.00
2014-9-4,86,72,65,-100,0,200,0,0,100,0.00,40.00,0,0,0,0.00
2014-9-5,95,78,70,-100,0,200,0,0,100,0.00,40.00,0,0,0,0.00
2014-9-6,71,66,60,-100,0,200,0,0,100,0.00,40.00,0,0,0,0.00
2014-9-7,78,64,53,-100,0,200,0,0,100,0.00,40.00,0,0,0,0.00
2014-9-8,67,60,53,-100,0,200,0,0,100,0.00,40.00,0,0,0,0.00
2014-9-9,80,67,57,-100,0,200,0,0,100,0.00,40.00,0,0,0,0.00
2014-9-10,79,74,68,-100,0,200,0,0,100,0.00,40.00,0,0,0,0.00
2014-9-11,69,61,55,-100,0,200,0,0,100,0.00,40.00,0,0,0,0.00
2014-9-12,58,55,52,-100,0,200,0,0,100,0.00,40.00,0,0,0,0.00
2014-9-13,67,52,46,-100,0,200,0,0,100,0.00,40.00,0,0,0,0.00
2014-9-14,72,52,42,-100,0,200,0,0,100,0.00,40.00,0,0,0,0.00
2014-9-15,77,60,49,-100,0,200,0,0,100,0.00,40.00,0,0,0,0.00
2014-9-16,62,57,49,-100,0,200,0,0,100,0.00,40.00,0,0,0,0.00
2014-9-17,67,54,43,-100,0,200,0,0,100,0.00,40.00,0,0,0,0.00
2014-9-18,74,61,55,-100,0,200,0,0,100,0.00,40.00,0,0,0,0.00
2014-9-19,82,59,49,-100,0,200,0,0,100,0.00,40.00,0,0,0,0.00
2014-9-20,85,66,55,-100,0,200,0,0,100,0.00,40.00,0,0,0,0.00
2014-9-21,77,67,58,-100,0,200,0,0,100,0.00,40.00,0,0,0,0.00
2014-9-22,72,56,50,-100,0,200,0,0,100,0.00,40.00,0,0,0,0.00
2014-9-23,74,56,46,-100,0,200,0,0,100,0.00,40.00,0,0,0,0.00
2014-9-24,75,55,46,-100,0,200,0,0,100,0.00,40.00,0,0,0,0.00
2014-9-25,83,62,50,-100,0,200,0,0,100,0.00,40.00,0,0,0,0.00
2014-9-26,82,62,55,-100,0,200,0,0,100,0.00,40.00,0,0,0,0.00
2014-9-27,85,64,57,-100,0,200,0,0,100,0.00,40.00,0,0,0,0.00
2014-9-28,89,67,55,-100,0,200,0,0,100,0.00,40.00,0,0,0,0.00
2014-9-29,67,59,55,-100,0,200,0,0,100,0.00,40.00,0,0,0,0.00
2014-9-30,90,66,54,-100,0,200,0,0,100,0.00,40.00,0,0,0,0.00
2014-10-1,89,67,56,-100,0,200,0,0,100,0.00,40.00,0,0,0,0.00
2014-10-2,87,70,62,-100,0,200,0,0,100,0.00,40.00,0,0,0,0.00
2014-10-3,73,59,46,-100,0,200,0,0,100,0.00,40.00,0,0,0,0.00
2014-10-4,58,44,38,-100,0,200,0,0,100,0.00,40.00,0,0,0,0.00
2014-10-5,71,48,36,-100,0,200,0,0,100,0.00,40.00,0,0,0,0.00
2014-10-6,68,55,49,-100,0,200,0,0,100,0.00,40.00,0,0,0,0.00
2014-10-7,75,59,51,-100,0,200,0,0,100,0.00,40.00,0,0,0,0.00
2014-10-8,74,56,46,-100,0,200,0,0,100,0.00,40.00,0,0,0,0.00
2014-10-9,75,59,53,-100,0,200,0,0,100,0.00,40.00,0,0,0,0.00
2014-10-10,55,51,46,-100,0,200,0,0,100,0.00,40.00,0,0,0,0.00
2014-10-11,57,51,46,-100,0,200,0,0,100,0.00,40.00,0,0,0,0.00
2014-10-12,62,56,50,-100,0,200,0,0,100,0.00,40.00,0,0,0,0.00
2014-10-13,71,63,60,-100,0,200,0,0,100,0.00,40.00,0,0,0,0.00
2014-10-14,59,55,50,-100,0,200,0,0,100,0.00,40.00,0,0,0,0.00
2014-10-15,52,50,49,-100,0,200,0,0,100,0.00,40.00,0,0,0,0.00
2014-10-16,64,53,48,-100,0,200,0,0,100,0.00,40.00,0,0,0,0.00
2014-10-17,72,58,49,-100,0,200,0,0,100,0.00,40.00,0,0,0,0.00
2014-10-18,61,52,44,-100,0,200,0,0,100,0.00,40.00,0,0,0,0.00
2014-10-19,62,50,42,-100,0,200,0,0,100,0.00,40.00,0,0,0,0.00
2014-10-20,69,54,46,-100,0,200,0,0,100,0.00,40.00,0,0,0,0.00
2014-10-21,65,50,44,-100,0,200,0,0,100,0.00,40.00,0,0,0,0.00
2014-10-22,63,45,39,-100,0,200,0,0,100,0.00,40.00,0,0,0,0.00
2014-10-23,63,47,36,-100,0,200,0,0,100,0.00,40.00,0,0,0,0.00
2014-10-24,74,53,43,-100,0,200,0,0,100,0.00,40.00,0,0,0,0.00
2014-10-25,77,61,52,-100,0,200,0,0,100,0.00,40.00,0,0,0,0.00
2014-10-26,80,59,47,-100,0,200,0,0,100,0.00,40.00,0,0,0,0.00
2014-10-27,78,68,59,-100,0,200,0,0,100,0.00,40.00,0,0,0,0.00
2014-10-28,68,59,50,-100,0,200,0,0,100,0.00,40.00,0,0,0,0.00
2014-10-29,58,47,40,-100,0,200,0,0,100,0.00,40.00,0,0,0,0.00
2014-10-30,63,46,33,-100,0,200,0,0,100,0.00,40.00,0,0,0,0.00
2014-10-31,47,43,32,-100,0,200,0,0,100,0.00,40.00,0,0,0,0.00
2014-11-1,47,33,27,-100,0,200,0,0,100,0.00,40.00,0,0,0,0.00
2014-11-2,52,37,22,-100,0,200,0,0,100,0.00,40.00,0,0,0,0.00
2014-11-3,65,51,38,-100,0,200,0,0,100,0.00,40.00,0,0,0,0.00
2014-11-4,53,49,46,-100,0,200,0,0,100,0.00,40.00,0,0,0,0.00
2014-11-5,53,46,39,-100,0,200,0,0,100,0.00,40.00,0,0,0,0.00
2014-11-6,48,42,34,-100,0,200,0,0,100,0.00,40.00,0,0,0,0.00
2014-11-7,53,36,25,-100,0,200,0,0,100,0.00,40.00,0,0,0,0.00
2014-11-8,49,39,29,-100,0,200,0,0,100,0.00,40.00,0,0,0,0.00
2014-11-9,59,34,25,-100,0,200,0,0,100,0.00,40.00,0,0,0,0.00
2014-11-10,66,56,37,-100,0,200,0,0,100,0.00,40.00,0,0,0,0.00
2014-11-11,56,42,29,-100,0,200,0,0,100,0.00,40.00,0,0,0,0.00
2014-11-12,30,28,26,-100,0,200,0,0,100,0.00,40.00,0,0,0,0.00
2014-11-13,26,22,19,-100,0,200,0,0,100,0.00,40.00,0,0,0,0.00
2014-11-14,43,24,15,-100,0,200,0,0,100,0.00,40.00,0,0,0,0.00
2014-11-15,49,25,15,-100,0,200,0,0,100,0.00,40.00,0,0,0,0.00
2014-11-16,34,28,26,-100,0,200,0,0,100,0.00,40.00,0,0,0,0.00
2014-11-17,31,22,13,-100,0,200,0,0,100,0.00,40.00,0,0,0,0.00
2014-11-18,41,17,10,-100,0,200,0,0,100,0.00,40.00,0,0,0,0.00
2014-11-19,59,33,19,-100,0,200,0,0,100,0.00,40.00,0,0,0,0.00
2014-11-20,50,26,15,-100,0,200,0,0,100,0.00,40.00,0,0,0,0.00
2014-11-21,57,33,14,-100,0,200,0,0,100,0.00,40.00,0,0,0,0.00